Hourly Weather Bolshoe Beresnevo

Today, 4 August, Wednesday

Time Temperature Precipitation Wind Pressure Humidity
00:00 +14°C° 0 mm 1 mps 738 mmHg 82%
01:00 +14°C° 0 mm 1 mps 738 mmHg 82%
02:00 +14°C° 0 mm 1 mps 739 mmHg 82%
03:00 +14°C° 0 mm 1 mps 739 mmHg 83%
04:00 +14°C° 0 mm 1 mps 739 mmHg 83%
05:00 +14°C° 0 mm 1 mps 739 mmHg 84%
06:00 +15°C° 0 mm 1 mps 739 mmHg 78%
07:00 +17°C° 0 mm 2 mps 740 mmHg 73%
08:00 +18°C° 0 mm 2 mps 740 mmHg 67%
09:00 +19°C° 0.2 mm 2 mps 740 mmHg 62%
10:00 +20°C° 0.2 mm 2 mps 740 mmHg 57%
11:00 +21°C° 0.2 mm 2 mps 740 mmHg 51%
12:00 +21°C° 0.1 mm 2 mps 740 mmHg 51%
13:00 +21°C° 0.1 mm 2 mps 740 mmHg 50%
14:00 +21°C° 0.1 mm 2 mps 740 mmHg 50%
15:00 +21°C° 0 mm 2 mps 740 mmHg 53%
16:00 +21°C° 0 mm 1 mps 740 mmHg 56%
17:00 +21°C° 0 mm 1 mps 740 mmHg 59%
18:00 +20°C° 0 mm 1 mps 740 mmHg 63%
19:00 +18°C° 0 mm 1 mps 740 mmHg 67%
20:00 +16°C° 0 mm 1 mps 740 mmHg 71%
21:00 +16°C° 0 mm 1 mps 741 mmHg 72%
22:00 +15°C° 0 mm 1 mps 741 mmHg 74%
23:00 +15°C° 0 mm 1 mps 741 mmHg 75%

Tomorrow, 5 August, Thursday

Time Temperature Precipitation Wind Pressure Humidity
00:00 +14°C° 0 mm 1 mps 741 mmHg 77%
01:00 +14°C° 0 mm 1 mps 740 mmHg 79%
02:00 +13°C° 0 mm 1 mps 740 mmHg 82%
03:00 +13°C° 0.2 mm 1 mps 740 mmHg 85%
04:00 +13°C° 0.2 mm 1 mps 740 mmHg 88%
05:00 +13°C° 0.2 mm 1 mps 740 mmHg 91%
06:00 +13°C° 0.8 mm 1 mps 740 mmHg 93%
07:00 +13°C° 0.8 mm 1 mps 740 mmHg 95%
08:00 +13°C° 0.8 mm 1 mps 740 mmHg 97%
09:00 +14°C° 0.9 mm 2 mps 740 mmHg 97%
10:00 +14°C° 0.9 mm 2 mps 740 mmHg 97%
11:00 +14°C° 0.9 mm 2 mps 739 mmHg 97%
12:00 +15°C° 0.3 mm 2 mps 739 mmHg 96%
13:00 +15°C° 0.3 mm 2 mps 739 mmHg 94%
14:00 +16°C° 0.3 mm 2 mps 739 mmHg 92%
15:00 +16°C° 0.2 mm 2 mps 738 mmHg 93%
16:00 +16°C° 0.2 mm 2 mps 738 mmHg 93%
17:00 +17°C° 0.2 mm 2 mps 738 mmHg 93%
18:00 +16°C° 0.3 mm 2 mps 738 mmHg 95%
19:00 +16°C° 0.3 mm 1 mps 738 mmHg 96%
20:00 +15°C° 0.3 mm 1 mps 738 mmHg 97%
21:00 +15°C° 0.1 mm 1 mps 738 mmHg 98%
22:00 +15°C° 0.1 mm 1 mps 737 mmHg 98%
23:00 +15°C° 0.1 mm 1 mps 737 mmHg 98%

Day after tomorrow, 6 August, Friday

Time Temperature Precipitation Wind Pressure Humidity
00:00 +15°C° 0 mm 1 mps 737 mmHg 98%
01:00 +15°C° 0 mm 1 mps 737 mmHg 98%
02:00 +15°C° 0 mm 1 mps 737 mmHg 99%
03:00 +15°C° 0 mm 2 mps 737 mmHg 99%
04:00 +15°C° 0 mm 2 mps 737 mmHg 99%
05:00 +15°C° 0 mm 2 mps 736 mmHg 99%
06:00 +14°C° 0.1 mm 3 mps 736 mmHg 98%
07:00 +14°C° 0.1 mm 3 mps 736 mmHg 98%
08:00 +16°C° 0.1 mm 3 mps 736 mmHg 97%
09:00 +15°C° 2.2 mm 4 mps 736 mmHg 98%
10:00 +15°C° 2.2 mm 4 mps 736 mmHg 98%
11:00 +15°C° 2.2 mm 4 mps 736 mmHg 98%
12:00 +15°C° 0.4 mm 4 mps 735 mmHg 97%
13:00 +17°C° 0.4 mm 4 mps 735 mmHg 96%
14:00 +17°C° 0.4 mm 4 mps 735 mmHg 94%
15:00 +17°C° 0.4 mm 4 mps 735 mmHg 95%
16:00 +17°C° 0.4 mm 4 mps 735 mmHg 96%
17:00 +17°C° 0.4 mm 4 mps 735 mmHg 97%
18:00 +17°C° 1.1 mm 4 mps 735 mmHg 97%
19:00 +17°C° 1.1 mm 4 mps 734 mmHg 98%
20:00 +17°C° 1.1 mm 4 mps 734 mmHg 98%
21:00 +17°C° 1.5 mm 4 mps 734 mmHg 98%
22:00 +17°C° 1.5 mm 3 mps 734 mmHg 98%
23:00 +17°C° 1.5 mm 3 mps 734 mmHg 99%

7 August, Saturday

Time Temperature Precipitation Wind Pressure Humidity
00:00 +17°C° 0.2 mm 3 mps 734 mmHg 98%
01:00 +18°C° 0.2 mm 3 mps 734 mmHg 98%
02:00 +18°C° 0.2 mm 3 mps 734 mmHg 98%
03:00 +18°C° 0 mm 3 mps 734 mmHg 98%
04:00 +17°C° 0 mm 3 mps 734 mmHg 98%
05:00 +17°C° 0 mm 2 mps 734 mmHg 98%
06:00 +17°C° 0.2 mm 2 mps 734 mmHg 97%
07:00 +18°C° 0.2 mm 2 mps 734 mmHg 97%
08:00 +18°C° 0.2 mm 2 mps 734 mmHg 96%
09:00 +19°C° 0.2 mm 2 mps 735 mmHg 90%
10:00 +21°C° 0.2 mm 2 mps 735 mmHg 85%
11:00 +23°C° 0.2 mm 2 mps 735 mmHg 79%
12:00 +24°C° 0.5 mm 2 mps 735 mmHg 80%
13:00 +24°C° 0.5 mm 2 mps 735 mmHg 82%
14:00 +24°C° 0.5 mm 2 mps 735 mmHg 83%
15:00 +23°C° 1.2 mm 1 mps 735 mmHg 86%
16:00 +23°C° 1.2 mm 1 mps 735 mmHg 89%
17:00 +23°C° 1.2 mm 1 mps 735 mmHg 92%
18:00 +22°C° 0.8 mm 1 mps 735 mmHg 94%
19:00 +20°C° 0.8 mm 2 mps 735 mmHg 96%
20:00 +19°C° 0.8 mm 2 mps 735 mmHg 98%
21:00 +18°C° 1 mm 2 mps 735 mmHg 98%
22:00 +17°C° 1 mm 2 mps 736 mmHg 98%
23:00 +18°C° 1 mm 1 mps 736 mmHg 98%

8 August, Sunday

Time Temperature Precipitation Wind Pressure Humidity
00:00 +16°C° 0.3 mm 1 mps 736 mmHg 98%
01:00 +16°C° 0.3 mm 1 mps 736 mmHg 98%
02:00 +16°C° 0.3 mm 1 mps 736 mmHg 98%
03:00 +15°C° 0 mm 1 mps 736 mmHg 98%
04:00 +15°C° 0 mm 1 mps 736 mmHg 98%
05:00 +15°C° 0 mm 1 mps 737 mmHg 98%
06:00 +15°C° 0 mm 2 mps 737 mmHg 96%
07:00 +15°C° 0 mm 2 mps 737 mmHg 94%
08:00 +16°C° 0 mm 2 mps 737 mmHg 92%
09:00 +17°C° 0 mm 2 mps 737 mmHg 83%
10:00 +18°C° 0 mm 2 mps 738 mmHg 74%
11:00 +20°C° 0 mm 2 mps 738 mmHg 65%
12:00 +21°C° 0 mm 2 mps 738 mmHg 61%
13:00 +21°C° 0 mm 2 mps 738 mmHg 56%
14:00 +23°C° 0 mm 2 mps 738 mmHg 52%
15:00 +23°C° 0 mm 2 mps 738 mmHg 54%
16:00 +23°C° 0 mm 2 mps 738 mmHg 57%
17:00 +23°C° 0 mm 2 mps 738 mmHg 59%
18:00 +20°C° 0 mm 2 mps 739 mmHg 66%
19:00 +18°C° 0 mm 2 mps 739 mmHg 73%
20:00 +17°C° 0 mm 2 mps 739 mmHg 80%
21:00 +16°C° 0 mm 1 mps 739 mmHg 83%
22:00 +15°C° 0 mm 1 mps 739 mmHg 86%
23:00 +15°C° 0 mm 1 mps 740 mmHg 90%

9 August, Monday

Time Temperature Precipitation Wind Pressure Humidity
00:00 +15°C° 0 mm 1 mps 740 mmHg 90%
01:00 +15°C° 0 mm 1 mps 740 mmHg 89%
02:00 +15°C° 0 mm 1 mps 740 mmHg 89%
03:00 +15°C° 0 mm 1 mps 740 mmHg 90%
04:00 +16°C° 0 mm 1 mps 740 mmHg 90%
05:00 +16°C° 0 mm 1 mps 740 mmHg 90%
06:00 +17°C° 0 mm 2 mps 741 mmHg 86%
07:00 +18°C° 0 mm 2 mps 741 mmHg 81%
08:00 +19°C° 0 mm 2 mps 741 mmHg 77%
09:00 +20°C° 0 mm 2 mps 741 mmHg 69%
10:00 +23°C° 0 mm 2 mps 741 mmHg 62%
11:00 +25°C° 0 mm 2 mps 742 mmHg 55%
12:00 +25°C° 0 mm 2 mps 741 mmHg 54%
13:00 +26°C° 0 mm 2 mps 741 mmHg 52%
14:00 +26°C° 0 mm 2 mps 741 mmHg 51%
15:00 +26°C° 0 mm 2 mps 741 mmHg 53%
16:00 +26°C° 0 mm 2 mps 741 mmHg 55%
17:00 +26°C° 0 mm 1 mps 741 mmHg 57%
18:00 +24°C° 0 mm 1 mps 741 mmHg 64%
19:00 +22°C° 0 mm 1 mps 741 mmHg 72%
20:00 +20°C° 0 mm 1 mps 741 mmHg 79%
21:00 +19°C° 0 mm 1 mps 741 mmHg 83%
22:00 +18°C° 0 mm 1 mps 741 mmHg 86%
23:00 +18°C° 0 mm 1 mps 741 mmHg 89%
Show more

We Need Your Consent

Meteoprog and our Service Providers may store and access personal data such as cookies, device identifiers or other similar technologies on your device and process such data to personalise content and ads, as well as provide social media features and to analyse the traffic.

  • Store and/or access information on your device

    Cookies, device identifiers or other information can be stored or accessed on your device for the purposes indicated above.

  • Personalised ads and content, ad and content measurement, audience insights, and products development

    Ads and content can be personalised based on a profile. More data can be added to better personalise ads and content. Ad and content performance can be measured. Insights about the audience who saw the ads and content can be derived. Such data can be used to develop or improve user’s experience, systems and software.

By clicking ‘I Agree’ you will allow the use of indicated cookies, device identifiers, web beacons or other similar technologies. Your settings can be changed in the browser on your device.

For certain purposes, legitimate interests may be relied on, rather than consent. You can read more about this in our Privacy and Cookie Policy.